This is the latest recevied weather packets stored in our database for station/object AE5HO. If no packets are shown the sender has not sent any weather packets the latest 10 day(s).
| Time | Temp. | Humidity | Pressure | Rain* | Wind** | Luminosity | Snow |
|---|---|---|---|---|---|---|---|
| 1787766774 | 34.44° C | 53% | 1015.4 hPa | 0 mm | - | 82 W/m² | - |
| 1787766473 | 34.44° C | 52% | 1015.5 hPa | 0 mm | - | 78 W/m² | - |
| 1787766168 | 34.44° C | 53% | 1015.6 hPa | 0 mm | - | 77 W/m² | - |
| 1787765863 | 33.89° C | 53% | 1015.5 hPa | 0 mm | - | 64 W/m² | - |
| 1787765560 | 33.89° C | 53% | 1015.8 hPa | 0 mm | - | 54 W/m² | - |
| 1787765260 | 33.89° C | 53% | 1015.8 hPa | 0 mm | - | 51 W/m² | - |
| 1787764959 | 34.44° C | 53% | 1015.6 hPa | 0 mm | - | 59 W/m² | - |
| 1787764655 | 34.44° C | 53% | 1015.5 hPa | 0 mm | - | 69 W/m² | - |
| 1787764355 | 34.44° C | 52% | 1015.4 hPa | 0 mm | - | 89 W/m² | - |
| 1787764051 | 34.44° C | 53% | 1015.7 hPa | 0 mm | - | 125 W/m² | - |
| 1787763746 | 35° C | 53% | 1015.4 hPa | 0 mm | - | 180 W/m² | - |
| 1787763442 | 35° C | 53% | 1015.6 hPa | 0 mm | - | 190 W/m² | - |
| 1787763136 | 34.44° C | 54% | 1015.6 hPa | 0 mm | - | 204 W/m² | - |
| 1787762836 | 34.44° C | 54% | 1015.6 hPa | 0 mm | - | 384 W/m² | - |
| 1787762530 | 33.89° C | 54% | 1015.8 hPa | 0 mm | - | 149 W/m² | - |
| 1787762228 | 33.89° C | 55% | 1015.7 hPa | 0 mm | - | 128 W/m² | - |
| 1787761928 | 33.89° C | 53% | 1015.8 hPa | 0 mm | - | 100 W/m² | - |
| 1787761623 | 33.89° C | 54% | 1015.5 hPa | 0 mm | - | 114 W/m² | - |
| 1787761318 | 33.89° C | 55% | 1015.3 hPa | 0 mm | - | 137 W/m² | - |
| 1787761017 | 34.44° C | 54% | 1015.4 hPa | 0 mm | - | 124 W/m² | - |
| 1787760715 | 35° C | 53% | 1015.3 hPa | 0 mm | - | 109 W/m² | - |
| 1787760410 | 35° C | 53% | 1015.2 hPa | 0 mm | - | 108 W/m² | - |
| 1787760106 | 35.56° C | 52% | 1015.4 hPa | 0 mm | - | 290 W/m² | - |
| 1787759802 | 35.56° C | 51% | 1015.3 hPa | 0 mm | - | 582 W/m² | - |
| 1787759498 | 35.56° C | 51% | 1015.6 hPa | 0 mm | - | 606 W/m² | - |
* Rain latest hour (hover to see other rain measurements)
** Current wind speed in m/s (hover to see current wind gust speed)